| time (UTC) | temp F | wind direction | speed knots | gust knots | rain 1hr in | rain 24hr in | rain mn in | humidity % | barometer mb |
| 20260504204857 | 48 | 358 | 15.6 | 21.7 | 0.00 | 0.00 | 0.00 | 47 | 1019.0 |
| 20260504204355 | 49 | 343 | 15.6 | 23.5 | 0.00 | 0.00 | 0.00 | 45 | 1019.0 |
| 20260504203854 | 49 | 3 | 9.6 | 13.9 | 0.00 | 0.00 | 0.00 | 45 | 1019.0 |
| 20260504203350 | 49 | 327 | 7.8 | 9.6 | 0.00 | 0.00 | 0.00 | 46 | 1019.0 |
| 20260504202846 | 49 | 334 | 4.3 | 6.1 | 0.00 | 0.00 | 0.00 | 46 | 1019.1 |
| 20260504202344 | 50 | 337 | 9.6 | 13.0 | 0.00 | 0.00 | 0.00 | 45 | 1019.0 |
| 20260504201840 | 50 | 338 | 13.0 | 15.6 | 0.00 | 0.00 | 0.00 | 45 | 1018.9 |
| 20260504201337 | 50 | 12 | 11.3 | 14.8 | 0.00 | 0.00 | 0.00 | 44 | 1018.9 |
| 20260504200834 | 50 | 51 | 6.1 | 8.7 | 0.00 | 0.00 | 0.00 | 45 | 1019.0 |
| 20260504200331 | 50 | 354 | 9.6 | 11.3 | 0.00 | 0.00 | 0.00 | 44 | 1019.1 |
| 20260504195827 | 50 | 37 | 8.7 | 13.0 | 0.00 | 0.00 | 0.00 | 44 | 1018.9 |
| 20260504195323 | 52 | 12 | 10.4 | 12.2 | 0.00 | 0.00 | 0.00 | 42 | 1019.0 |
| 20260504194820 | 52 | 18 | 8.7 | 12.2 | 0.00 | 0.00 | 0.00 | 42 | 1018.8 |
| 20260504194316 | 51 | 17 | 7.0 | 9.6 | 0.00 | 0.00 | 0.00 | 44 | 1019.0 |
| 20260504193812 | 51 | 2 | 10.4 | 13.0 | 0.00 | 0.00 | 0.00 | 43 | 1018.8 |
| 20260504193310 | 51 | 2 | 8.7 | 9.6 | 0.00 | 0.00 | 0.00 | 41 | 1019.0 |
| 20260504192808 | 51 | 8 | 12.2 | 15.6 | 0.00 | 0.00 | 0.00 | 41 | 1019.3 |
| 20260504192306 | 51 | 352 | 10.4 | 13.9 | 0.00 | 0.00 | 0.00 | 43 | 1018.8 |
| 20260504191804 | 52 | 346 | 5.2 | 7.0 | 0.00 | 0.00 | 0.00 | 45 | 1018.9 |
| 20260504191301 | 51 | 5 | 8.7 | 9.6 | 0.00 | 0.00 | 0.00 | 47 | 1019.0 |
| 20260504190757 | 51 | 5 | 8.7 | 13.9 | 0.00 | 0.00 | 0.00 | 48 | 1019.1 |
| 20260504190253 | 51 | 335 | 4.3 | 5.2 | 0.00 | 0.00 | 0.00 | 49 | 1019.0 |
| 20260504185750 | 51 | 2 | 6.1 | 7.8 | 0.00 | 0.00 | 0.00 | 51 | 1019.4 |
| 20260504185247 | 50 | 324 | 7.8 | 9.6 | 0.00 | 0.00 | 0.00 | 51 | 1019.1 |
| 20260504184743 | 51 | 15 | 4.3 | 5.2 | 0.00 | 0.00 | 0.00 | 51 | 1019.0 |
| 20260504184239 | 51 | 22 | 7.0 | 7.8 | 0.00 | 0.00 | 0.00 | 50 | 1018.8 |
| 20260504183735 | 51 | 337 | 7.8 | 9.6 | 0.00 | 0.00 | 0.00 | 49 | 1019.1 |
| 20260504183232 | 51 | 347 | 12.2 | 17.4 | 0.00 | 0.00 | 0.00 | 49 | 1019.1 |
| 20260504182730 | 51 | 11 | 7.0 | 7.8 | 0.00 | 0.00 | 0.00 | 52 | 1019.0 |
| 20260504182227 | 50 | 355 | 10.4 | 12.2 | 0.00 | 0.00 | 0.00 | 51 | 1019.3 |
| 20260504181724 | 51 | 7 | 7.0 | 8.7 | 0.00 | 0.00 | 0.00 | 50 | 1019.0 |
| 20260504181221 | 51 | 356 | 6.1 | 7.8 | 0.00 | 0.00 | 0.00 | 51 | 1018.9 |
| 20260504180720 | 51 | 15 | 4.3 | 6.1 | 0.00 | 0.00 | 0.00 | 51 | 1019.0 |
| 20260504180219 | 52 | 356 | 12.2 | 22.6 | 0.00 | 0.00 | 0.00 | 50 | 1019.3 |
| 20260504175716 | 52 | 347 | 7.0 | 9.6 | 0.00 | 0.00 | 0.00 | 49 | 1019.3 |
| 20260504175212 | 51 | 352 | 9.6 | 11.3 | 0.00 | 0.00 | 0.00 | 52 | 1019.0 |
| 20260504174711 | 51 | 356 | 7.8 | 9.6 | 0.00 | 0.00 | 0.00 | 51 | 1019.4 |
| 20260504174208 | 51 | 320 | 8.7 | 9.6 | 0.00 | 0.00 | 0.00 | 52 | 1019.4 |
| 20260504173705 | 50 | 293 | 4.3 | 6.1 | 0.00 | 0.00 | 0.00 | 52 | 1019.3 |
| 20260504173202 | 51 | 29 | 7.8 | 8.7 | 0.00 | 0.00 | 0.00 | 51 | 1019.4 |
| 20260504172658 | 49 | 11 | 6.1 | 6.1 | 0.00 | 0.00 | 0.00 | 53 | 1019.4 |
| 20260504172155 | 50 | 359 | 6.1 | 8.7 | 0.00 | 0.00 | 0.00 | 54 | 1019.3 |
| 20260504171651 | 50 | 0 | 5.2 | 7.0 | 0.00 | 0.00 | 0.00 | 52 | 1019.5 |
| 20260504171148 | 49 | 48 | 6.1 | 11.3 | 0.00 | 0.00 | 0.00 | 53 | 1019.3 |
| 20260504170645 | 49 | 353 | 9.6 | 13.0 | 0.00 | 0.00 | 0.00 | 53 | 1019.3 |
| 20260504170142 | 49 | 355 | 5.2 | 7.8 | 0.00 | 0.00 | 0.00 | 53 | 1019.4 |
| 20260504151028 | 48 | 352 | 12.2 | 15.6 | 0.00 | 0.00 | 0.00 | 55 | 1018.7 |
| 20260504150525 | 48 | 355 | 10.4 | 12.2 | 0.00 | 0.00 | 0.00 | 55 | 1018.8 |
| 20260504140951 | 46 | 5 | 7.8 | 8.7 | 0.00 | 0.00 | 0.00 | 62 | 1018.5 |
| 20260504140447 | 46 | 7 | 7.8 | 8.7 | 0.00 | 0.00 | 0.00 | 63 | 1018.5 |
| 20260504130412 | 44 | 8 | 7.0 | 8.7 | 0.00 | 0.00 | 0.00 | 68 | 1016.9 |
| 20260504110259 | 31 | 67 | 1.7 | 1.7 | 0.00 | 0.00 | 0.00 | 81 | 1014.4 |
| 20260504100217 | 31 | 204 | 1.7 | 1.7 | 0.00 | 0.00 | 0.00 | 83 | 1013.7 |
| 20260504090140 | 29 | 84 | 0.0 | 0.0 | 0.00 | 0.00 | 0.00 | 82 | 1014.2 |
| 20260504081610 | 31 | 184 | 2.6 | 2.6 | 0.00 | 0.00 | 0.00 | 79 | 1013.8 |
| 20260504081106 | 31 | 77 | 1.7 | 1.7 | 0.00 | 0.00 | 0.00 | 78 | 1013.9 |
| 20260504080603 | 32 | 121 | 0.0 | 0.0 | 0.00 | 0.00 | 0.00 | 78 | 1013.8 |
| 20260504050415 | 38 | 244 | 0.9 | 0.9 | 0.00 | 0.00 | 0.00 | 64 | 1014.3 |
| 20260504045912 | 39 | 245 | 0.0 | 0.9 | 0.00 | 0.00 | 0.00 | 62 | 1014.4 |
| 20260504045408 | 40 | 245 | 0.9 | 0.9 | 0.00 | 0.00 | 0.00 | 59 | 1014.7 |
| 20260504044904 | 41 | 245 | 0.9 | 0.9 | 0.00 | 0.00 | 0.00 | 56 | 1014.7 |
| 20260504044402 | 41 | 246 | 0.9 | 0.9 | 0.00 | 0.00 | 0.00 | 55 | 1014.6 |
| 20260504043859 | 41 | 245 | 1.7 | 1.7 | 0.00 | 0.00 | 0.00 | 57 | 1014.5 |
| 20260504043356 | 41 | 245 | 2.6 | 2.6 | 0.00 | 0.00 | 0.00 | 56 | 1014.6 |
| 20260504042854 | 39 | 246 | 1.7 | 1.7 | 0.00 | 0.00 | 0.00 | 59 | 1014.7 |
| 20260504042349 | 38 | 244 | 0.9 | 1.7 | 0.00 | 0.00 | 0.00 | 62 | 1014.7 |
| 20260504041846 | 39 | 244 | 4.3 | 4.3 | 0.00 | 0.00 | 0.00 | 63 | 1014.7 |
| 20260504041342 | 40 | 56 | 0.0 | 0.0 | 0.00 | 0.00 | 0.00 | 60 | 1014.6 |
| 20260504040838 | 40 | 65 | 0.0 | 0.9 | 0.00 | 0.00 | 0.00 | 58 | 1014.7 |
| 20260504040336 | 41 | 61 | 0.0 | 0.0 | 0.00 | 0.00 | 0.00 | 56 | 1014.9 |
| 20260504035832 | 43 | 51 | 0.9 | 0.9 | 0.00 | 0.00 | 0.00 | 52 | 1015.1 |
| 20260504035330 | 43 | 64 | 1.7 | 1.7 | 0.00 | 0.00 | 0.00 | 53 | 1015.1 |
| 20260504034827 | 42 | 64 | 0.0 | 0.9 | 0.00 | 0.00 | 0.00 | 50 | 1015.2 |
| 20260504034325 | 42 | 79 | 0.0 | 0.0 | 0.00 | 0.00 | 0.00 | 52 | 1015.1 |
| 20260504033821 | 44 | 101 | 0.9 | 0.9 | 0.00 | 0.00 | 0.00 | 49 | 1014.7 |
| 20260504033319 | 45 | 131 | 0.9 | 0.9 | 0.00 | 0.00 | 0.00 | 48 | 1015.2 |
| 20260504032815 | 46 | 126 | 1.7 | 1.7 | 0.00 | 0.00 | 0.00 | 47 | 1014.9 |
| 20260504032313 | 46 | 116 | 0.9 | 0.9 | 0.00 | 0.00 | 0.00 | 46 | 1014.9 |
| 20260504031809 | 45 | 86 | 0.0 | 0.0 | 0.00 | 0.00 | 0.00 | 47 | 1014.6 |
| 20260504031307 | 44 | 88 | 0.0 | 0.0 | 0.00 | 0.00 | 0.00 | 48 | 1015.1 |
| 20260504030803 | 45 | 107 | 0.0 | 0.0 | 0.00 | 0.00 | 0.00 | 49 | 1014.8 |
| 20260504030300 | 45 | 97 | 0.0 | 0.0 | 0.00 | 0.00 | 0.00 | 49 | 1014.7 |
| 20260504025756 | 46 | 88 | 0.0 | 0.0 | 0.00 | 0.00 | 0.00 | 47 | 1014.8 |
| 20260504025253 | 46 | 78 | 0.0 | 0.0 | 0.00 | 0.00 | 0.00 | 47 | 1014.7 |
| 20260504024750 | 46 | 97 | 0.0 | 0.0 | 0.00 | 0.00 | 0.00 | 49 | 1014.6 |
| 20260504024247 | 45 | 93 | 0.9 | 0.9 | 0.00 | 0.00 | 0.00 | 49 | 1014.5 |
| 20260504023744 | 48 | 109 | 0.9 | 1.7 | 0.00 | 0.00 | 0.00 | 47 | 1014.6 |
| 20260504023240 | 51 | 265 | 0.9 | 0.9 | 0.00 | 0.00 | 0.00 | 44 | 1014.5 |
| 20260504022736 | 55 | 269 | 0.9 | 0.9 | 0.00 | 0.00 | 0.00 | 39 | 1014.5 |
| 20260504022232 | 56 | 8 | 1.7 | 1.7 | 0.00 | 0.00 | 0.00 | 34 | 1014.0 |
| 20260504021729 | 56 | 335 | 0.0 | 0.9 | 0.00 | 0.00 | 0.00 | 34 | 1014.3 |
| 20260504021226 | 57 | 332 | 0.0 | 0.0 | 0.00 | 0.00 | 0.00 | 34 | 1014.3 |
| 20260504020723 | 58 | 314 | 2.6 | 2.6 | 0.00 | 0.00 | 0.00 | 33 | 1014.4 |
| 20260504020220 | 59 | 307 | 1.7 | 1.7 | 0.00 | 0.00 | 0.00 | 32 | 1014.3 |
| 20260504015716 | 59 | 316 | 1.7 | 1.7 | 0.00 | 0.00 | 0.00 | 32 | 1014.4 |
| 20260504015213 | 61 | 292 | 2.6 | 2.6 | 0.00 | 0.00 | 0.00 | 30 | 1014.3 |
| 20260504014708 | 63 | 300 | 2.6 | 2.6 | 0.00 | 0.00 | 0.00 | 29 | 1014.4 |
| 20260504014205 | 64 | 330 | 2.6 | 2.6 | 0.00 | 0.00 | 0.00 | 28 | 1014.5 |
| 20260504013703 | 64 | 315 | 2.6 | 2.6 | 0.00 | 0.00 | 0.00 | 27 | 1014.4 |
| 20260504013200 | 65 | 297 | 3.5 | 4.3 | 0.00 | 0.00 | 0.00 | 27 | 1014.4 |
| 20260504012656 | 67 | 313 | 2.6 | 2.6 | 0.00 | 0.00 | 0.00 | 26 | 1014.5 |
| 20260504012155 | 67 | 18 | 0.9 | 0.9 | 0.00 | 0.00 | 0.00 | 25 | 1014.3 |
| 20260504011652 | 67 | 13 | 0.9 | 0.9 | 0.00 | 0.00 | 0.00 | 25 | 1014.6 |
| 20260504011148 | 67 | 268 | 0.9 | 1.7 | 0.00 | 0.00 | 0.00 | 25 | 1014.5 |
| 20260504010644 | 68 | 338 | 0.9 | 1.7 | 0.00 | 0.00 | 0.00 | 25 | 1014.7 |
| 20260504010139 | 68 | 306 | 4.3 | 5.2 | 0.00 | 0.00 | 0.00 | 25 | 1015.1 |
| 20260504005637 | 68 | 357 | 3.5 | 4.3 | 0.00 | 0.00 | 0.00 | 24 | 1015.2 |
| 20260504005133 | 68 | 299 | 4.3 | 6.1 | 0.00 | 0.00 | 0.00 | 25 | 1014.9 |
| 20260504004632 | 69 | 317 | 1.7 | 1.7 | 0.00 | 0.00 | 0.00 | 26 | 1014.8 |
| 20260504004129 | 69 | 343 | 0.9 | 0.9 | 0.00 | 0.00 | 0.00 | 26 | 1015.1 |
| 20260504003625 | 69 | 282 | 3.5 | 5.2 | 0.00 | 0.00 | 0.00 | 25 | 1015.4 |
| 20260504003121 | 69 | 292 | 2.6 | 2.6 | 0.00 | 0.00 | 0.00 | 25 | 1015.3 |
| 20260504002618 | 69 | 344 | 8.7 | 12.2 | 0.00 | 0.00 | 0.00 | 25 | 1014.9 |
| 20260504002116 | 69 | 344 | 6.1 | 7.0 | 0.00 | 0.00 | 0.00 | 26 | 1015.1 |
| 20260504001614 | 69 | 347 | 4.3 | 5.2 | 0.00 | 0.00 | 0.00 | 27 | 1014.9 |
| 20260504001109 | 69 | 291 | 7.8 | 9.6 | 0.00 | 0.00 | 0.00 | 27 | 1015.1 |
| 20260504000607 | 67 | 358 | 2.6 | 2.6 | 0.00 | 0.00 | 0.00 | 29 | 1015.3 |
| 20260504000104 | 68 | 6 | 1.7 | 2.6 | 0.00 | 0.00 | 0.00 | 28 | 1015.3 |
| 20260503235602 | 70 | 303 | 1.7 | 1.7 | 0.00 | 0.00 | 0.00 | 27 | 1015.5 |
| 20260503235059 | 70 | 354 | 5.2 | 5.2 | 0.00 | 0.00 | 0.00 | 28 | 1015.2 |
| 20260503234556 | 70 | 256 | 0.9 | 1.7 | 0.00 | 0.00 | 0.00 | 27 | 1015.3 |
| 20260503234054 | 70 | 272 | 2.6 | 4.3 | 0.00 | 0.00 | 0.00 | 27 | 1015.3 |
| 20260503233551 | 70 | 344 | 3.5 | 4.3 | 0.00 | 0.00 | 0.00 | 27 | 1015.4 |
| 20260503233047 | 69 | 352 | 5.2 | 6.1 | 0.00 | 0.00 | 0.00 | 27 | 1015.3 |
| 20260503232544 | 69 | 10 | 4.3 | 6.1 | 0.00 | 0.00 | 0.00 | 29 | 1015.6 |
| 20260503232041 | 68 | 339 | 3.5 | 4.3 | 0.00 | 0.00 | 0.00 | 26 | 1015.5 |
| 20260503231539 | 68 | 349 | 3.5 | 4.3 | 0.00 | 0.00 | 0.00 | 27 | 1015.6 |
| 20260503231035 | 68 | 3 | 3.5 | 4.3 | 0.00 | 0.00 | 0.00 | 27 | 1015.6 |
| 20260503230532 | 67 | 344 | 4.3 | 5.2 | 0.00 | 0.00 | 0.00 | 27 | 1015.3 |
| 20260503230030 | 68 | 8 | 3.5 | 4.3 | 0.00 | 0.00 | 0.00 | 27 | 1015.6 |
| 20260503225526 | 71 | 317 | 0.9 | 0.9 | 0.00 | 0.00 | 0.00 | 26 | 1015.9 |
| 20260503225021 | 70 | 5 | 4.3 | 6.1 | 0.00 | 0.00 | 0.00 | 27 | 1015.6 |
| 20260503224520 | 71 | 335 | 6.1 | 7.0 | 0.00 | 0.00 | 0.00 | 25 | 1015.7 |
| 20260503224017 | 69 | 293 | 3.5 | 5.2 | 0.00 | 0.00 | 0.00 | 26 | 1015.6 |
| 20260503223515 | 67 | 299 | 7.0 | 8.7 | 0.00 | 0.00 | 0.00 | 28 | 1015.9 |
| 20260503223010 | 69 | 3 | 4.3 | 6.1 | 0.00 | 0.00 | 0.00 | 28 | 1015.9 |
| 20260503222509 | 70 | 341 | 4.3 | 6.1 | 0.00 | 0.00 | 0.00 | 26 | 1016.1 |
| 20260503222006 | 68 | 339 | 4.3 | 5.2 | 0.00 | 0.00 | 0.00 | 28 | 1015.9 |
| 20260503221504 | 69 | 342 | 7.8 | 8.7 | 0.00 | 0.00 | 0.00 | 27 | 1015.7 |
| 20260503221001 | 69 | 338 | 5.2 | 7.0 | 0.00 | 0.00 | 0.00 | 27 | 1015.9 |
| 20260503220457 | 70 | 336 | 7.0 | 7.8 | 0.00 | 0.00 | 0.00 | 27 | 1016.1 |
| 20260503215954 | 70 | 40 | 4.3 | 6.1 | 0.00 | 0.00 | 0.00 | 26 | 1016.1 |
| 20260503215451 | 70 | 339 | 2.6 | 4.3 | 0.00 | 0.00 | 0.00 | 26 | 1016.3 |
| 20260503214949 | 70 | 340 | 2.6 | 4.3 | 0.00 | 0.00 | 0.00 | 27 | 1016.5 |
| 20260503214447 | 68 | 352 | 3.5 | 5.2 | 0.00 | 0.00 | 0.00 | 28 | 1016.8 |
| 20260503213943 | 69 | 337 | 4.3 | 7.8 | 0.00 | 0.00 | 0.00 | 29 | 1016.4 |
| 20260503213442 | 68 | 337 | 2.6 | 2.6 | 0.00 | 0.00 | 0.00 | 30 | 1016.6 |
| 20260503212937 | 69 | 299 | 3.5 | 4.3 | 0.00 | 0.00 | 0.00 | 28 | 1016.9 |
| 20260503212435 | 69 | 330 | 6.1 | 7.8 | 0.00 | 0.00 | 0.00 | 30 | 1016.8 |
| 20260503211932 | 68 | 341 | 4.3 | 7.0 | 0.00 | 0.00 | 0.00 | 29 | 1016.8 |
| 20260503211430 | 70 | 344 | 4.3 | 5.2 | 0.00 | 0.00 | 0.00 | 27 | 1017.1 |
| 20260503210925 | 70 | 333 | 2.6 | 4.3 | 0.00 | 0.00 | 0.00 | 28 | 1017.2 |
| 20260503210422 | 68 | 277 | 4.3 | 6.1 | 0.00 | 0.00 | 0.00 | 31 | 1017.2 |
| 20260503205916 | 69 | 317 | 5.2 | 7.0 | 0.00 | 0.00 | 0.00 | 31 | 1017.0 |
| 20260503205414 | 69 | 302 | 7.8 | 11.3 | 0.00 | 0.00 | 0.00 | 28 | 1017.4 |